GFSGL_850_spd_159.txt.gz
Wind_Speed
55 56 62 54 50 57 58 50 46 44 42 40 38 34 29 23 17 16 12 8 4 2 2 4 6 7 8 8 9 11 12 13 15 18 19 17 19 25 29 30 29 26 23
57 57 61 57 57 61 58 49 49 46 42 42 38 32 26 22 20 16 11 8 5 2 2 4 6 8 8 9 10 11 12 13 15 20 21 20 24 26 26 29 31 26 25
53 57 63 61 57 62 56 53 48 47 46 40 33 29 28 24 20 14 9 6 4 2 2 5 7 7 7 9 11 11 13 14 17 21 21 23 25 30 33 33 37 32 28
52 56 63 58 58 60 54 51 49 48 44 37 32 30 27 24 19 14 10 8 5 4 4 5 7 8 11 11 11 13 14 16 20 22 24 28 32 34 37 40 43 38 33
52 59 59 58 58 60 56 52 49 45 42 38 37 32 26 21 18 14 11 7 5 4 4 10 12 13 12 11 12 14 15 17 21 22 28 32 35 37 36 39 40 38 35
48 49 53 65 67 65 54 49 48 44 43 40 36 32 27 22 18 15 9 7 5 5 7 11 12 11 12 13 13 13 15 17 18 25 28 31 32 30 34 39 36 38 37
46 45 40 79 58 57 54 50 48 47 44 40 35 31 27 23 17 11 8 7 6 7 7 8 11 13 12 14 14 15 16 18 19 21 24 22 27 27 33 32 32 34 33
50 44 36 44 41 46 51 51 49 46 42 39 34 29 26 23 16 12 12 11 11 13 11 12 13 14 16 16 15 16 16 15 17 17 19 22 21 26 24 26 30 35 34
60 62 54 51 51 51 50 50 47 45 41 37 33 29 24 23 16 15 14 14 14 15 15 14 16 17 17 17 18 19 16 17 17 16 17 21 24 21 19 25 32 40 42
69 56 64 60 57 54 52 50 46 40 39 36 33 26 22 21 20 20 15 13 16 16 16 16 18 20 23 23 25 24 21 21 22 22 23 27 27 22 22 23 27 40 36
58 60 62 59 57 53 50 45 43 42 41 37 34 29 25 21 20 16 14 13 15 16 17 19 21 24 25 24 25 26 22 20 22 24 27 32 28 24 26 26 27 31 32
65 59 56 52 51 49 48 45 42 41 40 37 33 31 27 24 22 16 15 11 10 16 21 22 23 22 21 20 21 24 21 20 25 28 33 35 30 28 30 30 29 26 27
57 56 54 54 53 49 46 44 41 38 36 36 34 33 29 23 19 16 13 14 16 20 21 21 19 17 16 17 19 23 23 24 28 31 34 32 28 26 31 35 32 33 35
57 54 52 51 47 43 41 40 39 39 39 38 36 34 30 26 23 20 17 18 20 19 17 15 14 13 14 16 17 22 26 26 28 30 33 30 28 29 34 37 39 41 40
58 57 54 51 50 48 43 40 39 36 34 34 30 27 26 23 22 20 21 21 18 15 13 12 14 16 18 19 19 22 27 27 28 30 32 32 32 33 37 39 40 42 40
57 54 52 52 49 47 46 43 33 31 27 25 23 22 25 23 24 24 23 20 16 12 15 16 17 17 18 19 21 22 26 28 28 29 30 31 32 36 39 40 40 42 41
54 50 47 45 43 42 41 42 42 30 25 25 26 25 24 27 25 23 20 17 15 12 17 17 16 16 16 17 19 22 26 26 25 28 29 30 31 36 40 41 40 42 44
50 48 47 45 43 40 37 36 32 33 36 35 31 31 30 28 26 23 20 17 17 16 17 15 14 13 14 15 16 21 23 25 27 28 27 29 32 35 41 40 40 42 41
46 45 42 37 31 29 29 29 30 31 33 35 33 30 28 24 21 17 15 14 16 16 13 12 11 12 13 13 16 20 22 24 26 27 27 28 31 33 40 37 38 41 41
35 33 31 29 28 28 27 29 31 33 34 32 30 27 24 19 18 15 12 12 14 14 11 8 9 9 12 15 18 19 22 24 26 27 26 28 29 30 38 35 37 40 42
30 30 29 29 28 29 32 33 33 33 32 28 26 24 20 14 15 12 10 11 12 11 7 6 8 9 13 17 18 20 22 23 25 26 26 27 29 31 37 32 35 38 40
34 32 31 35 35 33 30 28 26 25 23 25 24 22 13 12 12 13 11 10 9 8 3 6 9 11 14 18 21 22 23 24 25 25 25 26 28 30 36 30 34 37 38
28 29 29 28 28 27 27 25 21 19 26 25 20 15 11 11 10 10 9 8 7 6 7 8 10 13 14 17 22 23 23 24 25 25 24 25 26 28 31 29 32 34 37
30 29 30 28 25 22 20 22 27 28 25 21 17 14 12 10 9 10 10 8 7 7 9 10 11 14 15 17 21 22 22 22 23 23 23 23 23 25 26 25 29 29 33
24 27 26 25 23 24 26 27 25 23 22 17 13 12 13 10 11 11 9 7 8 7 9 11 13 14 15 17 20 20 21 21 23 23 22 21 22 23 22 22 26 26 31
26 25 24 25 23 22 24 24 22 18 17 15 14 13 12 11 9 6 6 7 4 4 7 8 13 16 16 17 18 20 21 21 22 23 23 23 23 22 22 21 22 24 28

GFSGL_850_spd_165.txt.gz
Wind_Speed
34 36 43 54 55 53 54 50 51 52 50 50 49 44 41 37 34 30 25 19 16 15 12 8 6 3 1 3 5 5 6 6 5 7 10 14 17 19 20 24 23 23 24
32 35 43 43 49 49 49 49 52 52 50 53 51 48 41 40 37 30 23 16 17 14 12 9 5 3 3 5 6 6 7 8 8 10 14 17 19 22 25 26 24 24 24
32 37 38 42 49 50 47 47 48 50 51 50 53 47 42 42 37 26 22 21 19 14 11 8 7 6 5 6 6 6 8 8 10 14 16 20 22 25 26 26 28 27 26
29 37 37 42 47 48 45 46 47 51 51 47 47 44 43 38 30 27 23 23 18 15 12 11 10 7 6 7 7 8 8 9 11 14 18 22 27 29 29 34 35 31 30
30 34 37 39 43 42 43 45 49 49 50 46 48 43 42 34 29 29 26 21 17 16 15 13 10 8 7 7 8 9 9 11 14 18 22 26 29 31 33 35 37 41 33
32 34 35 37 39 41 44 49 52 51 47 53 42 45 42 33 29 27 22 21 19 16 15 13 11 10 10 10 10 11 12 14 17 21 25 26 26 28 30 33 37 42 39
44 44 33 37 35 42 48 47 55 48 43 46 55 47 39 37 30 24 21 21 20 17 15 13 13 13 11 11 11 11 12 15 19 23 24 24 24 27 29 31 32 32 32
47 46 36 38 39 55 53 53 52 50 47 46 34 36 36 33 28 24 22 22 21 21 18 15 14 14 13 11 10 10 14 16 21 22 20 19 20 24 24 26 29 30 32
40 44 43 47 48 63 60 61 54 49 41 40 40 38 34 31 26 23 23 25 24 23 21 18 15 15 14 13 12 14 14 18 20 19 18 17 17 20 23 26 29 33 37
47 48 47 47 53 66 67 66 61 56 44 44 41 34 33 31 24 25 23 23 24 24 22 19 17 17 16 15 15 15 18 21 19 18 18 19 21 22 23 23 25 29 31
50 53 58 56 57 67 69 66 65 56 53 46 44 37 31 29 28 23 21 22 22 24 21 20 19 17 17 17 18 20 21 18 20 20 21 22 23 23 24 23 24 24 26
57 61 59 54 57 71 64 61 59 60 55 50 46 41 35 31 28 25 22 21 20 20 22 20 17 17 17 18 19 19 16 19 19 21 24 26 26 27 26 26 26 22 22
49 56 65 72 67 61 59 62 60 60 54 51 49 46 39 34 32 28 26 22 20 21 21 19 16 18 16 17 19 19 18 20 21 23 25 25 25 26 26 28 30 27 29
64 61 61 61 55 57 61 60 56 57 55 52 49 46 41 37 33 28 26 23 21 21 19 17 17 18 16 20 20 19 21 21 22 23 23 25 26 28 30 33 36 36 39
58 54 57 61 63 62 57 53 54 50 48 47 45 43 41 37 31 27 23 22 20 18 18 17 18 15 21 20 18 20 19 19 21 23 25 28 30 30 32 35 37 39 41
55 57 62 64 61 57 54 50 44 43 41 38 38 38 36 33 29 25 21 19 17 15 17 19 17 21 20 18 18 19 18 19 22 25 27 29 30 31 33 36 38 40 42
57 57 56 57 56 54 52 51 51 42 38 37 36 36 33 33 26 24 23 22 16 13 19 18 21 19 19 17 16 17 18 21 23 24 26 28 29 31 35 37 39 41 43
52 54 56 56 55 54 54 54 52 50 46 42 35 33 30 27 25 22 22 20 21 20 19 20 18 16 17 14 15 18 20 21 22 24 25 27 29 32 35 37 39 41 43
51 52 53 52 51 52 52 50 48 47 47 45 39 31 25 23 22 21 17 19 20 20 18 16 16 16 13 14 17 20 20 20 21 23 25 28 31 32 34 35 37 39 40
51 52 52 51 50 48 48 49 49 47 46 42 37 33 29 26 25 22 20 20 20 17 14 15 15 14 13 16 17 17 17 19 20 23 26 28 30 31 33 34 36 39 40
48 49 47 44 42 45 46 45 43 42 40 36 32 25 21 22 23 20 20 18 16 14 13 12 12 14 16 16 16 16 17 18 20 23 26 28 30 30 31 31 33 37 38
37 38 38 42 44 43 43 41 39 38 35 32 27 21 18 20 20 19 18 16 14 14 13 11 12 15 15 15 15 15 17 19 22 24 26 28 29 29 30 31 32 35 38
34 37 40 42 43 42 39 37 34 33 31 28 26 23 20 20 19 19 18 17 15 14 13 12 13 14 14 15 15 15 18 21 24 26 26 27 28 28 29 29 30 33 36
32 35 37 40 39 37 34 32 29 27 26 26 24 22 20 20 19 18 18 16 14 14 14 13 13 14 15 15 14 16 19 22 24 25 26 26 27 27 27 27 27 30 32
32 35 36 36 34 32 31 30 28 26 23 22 21 21 21 20 19 17 17 14 13 12 13 12 12 14 14 14 14 16 18 21 23 24 25 25 25 24 24 24 24 27 29
30 31 31 30 31 32 32 28 25 23 22 21 22 22 19 17 16 14 12 11 10 10 10 10 10 13 14 15 16 16 18 20 22 24 25 24 24 23 22 21 22 25 27

GFSGL_850_spd_168.txt.gz
Wind_Speed
28 30 35 40 45 44 48 51 52 47 43 40 41 44 44 37 37 33 29 29 24 19 14 12 10 5 4 4 2 3 5 6 6 9 11 14 17 20 21 21 22 23 24
28 31 36 38 40 45 44 47 48 45 42 43 41 42 46 39 40 38 40 29 22 17 15 12 6 4 2 1 2 3 5 6 7 10 12 16 19 21 23 23 22 22 24
30 29 34 41 43 44 40 42 40 43 38 41 39 42 48 45 41 39 33 26 20 14 13 10 7 5 2 1 3 5 7 8 10 12 16 18 21 22 24 25 26 26 25
26 26 27 38 43 43 40 36 40 41 40 40 41 45 49 45 40 35 26 24 19 17 14 10 8 6 4 3 4 5 7 9 11 14 16 20 22 24 27 33 35 31 28
26 23 29 38 40 44 40 38 39 39 39 44 42 46 45 42 38 31 26 19 19 20 15 12 9 8 5 6 6 7 8 10 13 16 18 20 24 29 32 33 36 39 33
31 24 31 35 42 41 42 36 40 44 43 41 45 45 43 37 32 26 23 17 19 17 15 12 10 10 9 8 8 9 12 14 17 18 20 22 24 28 30 33 36 42 35
30 30 33 34 43 43 44 42 47 45 45 41 45 45 43 36 26 18 18 21 20 18 15 14 13 12 9 8 10 12 14 16 18 20 20 23 26 28 30 33 33 33 33
33 33 33 33 39 43 46 48 50 51 50 49 49 44 38 33 28 25 25 24 23 20 17 16 14 12 10 9 9 11 12 15 18 19 19 21 22 24 26 29 31 32 32
36 34 26 32 41 43 50 57 50 49 52 58 57 50 39 37 35 30 30 28 25 22 20 18 15 13 12 10 9 11 13 15 16 17 17 16 18 23 26 27 31 36 38
40 32 32 41 41 48 54 56 58 52 56 55 51 45 43 39 32 33 28 26 27 25 22 20 17 14 12 12 10 11 12 15 14 15 15 17 21 24 26 28 29 33 33
30 31 44 47 55 57 58 56 63 60 63 56 51 45 41 39 36 30 26 26 26 25 23 22 19 16 13 12 11 13 17 16 16 18 20 22 25 28 28 28 27 28 28
44 51 57 60 56 54 55 55 71 70 63 56 50 49 43 39 34 29 26 23 24 24 24 22 20 16 13 14 14 15 15 16 18 23 24 28 31 32 29 27 27 24 22
64 64 62 59 57 54 52 66 68 69 65 60 59 53 46 40 35 29 27 27 24 24 24 21 19 17 14 15 13 14 16 21 25 27 29 30 31 30 30 30 29 26 24
67 65 63 62 59 60 65 63 68 66 63 60 57 54 49 42 38 34 31 27 25 25 23 20 18 16 15 15 14 18 23 25 26 27 28 30 30 32 32 34 35 36 36
65 67 64 69 68 68 62 58 60 56 58 58 54 52 50 43 36 30 29 27 24 22 22 20 18 16 14 16 19 21 23 24 27 28 32 32 32 33 33 35 35 36 36
69 67 71 69 63 62 62 57 53 54 49 49 48 46 42 39 34 29 26 24 22 20 21 20 17 16 18 21 20 23 23 26 28 31 31 31 33 34 34 36 37 36 36
74 67 66 66 61 59 58 58 56 47 46 44 42 41 40 37 30 29 27 25 21 17 18 19 19 18 20 20 21 21 24 26 28 29 30 31 32 32 35 37 38 37 36
60 60 62 62 60 58 57 58 57 55 52 45 38 37 34 31 28 27 25 24 23 19 20 20 20 19 19 20 20 22 24 25 26 28 29 30 30 32 34 36 37 37 35
58 59 60 59 59 61 60 57 54 53 52 48 42 35 30 28 27 25 22 21 23 23 21 20 19 19 19 19 20 22 23 24 26 28 28 28 29 30 32 33 34 35 35
55 56 57 57 56 55 54 54 53 51 48 44 40 37 31 29 28 25 22 22 23 22 20 19 19 18 17 19 20 21 21 23 26 26 27 27 27 28 30 31 34 36 35
53 53 53 54 54 53 53 51 50 48 44 40 36 31 29 29 28 25 24 22 21 20 19 18 17 17 19 18 19 20 21 23 24 25 25 26 27 27 28 29 32 34 34
49 48 49 50 49 49 48 47 45 43 40 38 34 29 27 27 26 24 22 21 19 18 17 16 16 18 18 17 17 18 20 22 23 24 25 26 26 26 27 28 31 32 33
41 43 45 46 45 45 44 42 40 38 36 34 32 31 27 26 24 22 21 20 18 17 17 16 18 18 16 16 17 18 19 21 23 25 25 25 25 25 25 27 29 31 32
42 43 45 45 44 42 40 39 36 34 33 32 30 29 26 25 23 20 19 18 17 17 16 16 17 17 16 15 15 16 17 20 22 23 24 23 23 22 22 24 27 29 31
42 43 43 42 40 39 37 35 34 32 30 28 27 26 25 24 21 19 18 16 16 15 15 15 16 16 15 14 13 14 17 19 21 22 23 22 21 20 20 22 24 27 29
36 37 37 37 36 34 33 32 31 29 28 26 25 23 23 22 19 17 16 14 13 13 13 14 14 13 12 12 13 14 16 18 20 22 22 21 20 20 19 21 23 25 28

GFSGL_850_spd_171.txt.gz
Wind_Speed
24 24 26 28 30 34 33 34 34 39 34 44 38 38 38 45 44 39 40 39 36 30 23 18 12 8 6 6 4 5 5 5 5 10 11 15 18 20 21 22 24 25 26
26 26 29 31 30 29 33 34 33 37 39 41 40 37 36 44 43 41 39 41 30 21 19 15 8 9 7 1 2 3 4 5 6 9 12 15 17 20 23 24 24 24 26
24 27 28 31 32 31 32 33 34 33 38 38 35 36 33 36 40 40 37 28 29 20 14 9 9 8 4 2 1 2 4 6 8 10 13 17 18 22 24 25 24 25 25
26 28 28 27 32 34 36 32 33 34 36 34 37 38 31 35 43 39 34 30 25 21 12 11 10 7 6 4 3 5 6 8 9 12 15 16 19 24 25 26 28 29 30
27 29 28 20 29 30 31 32 32 36 40 40 36 36 39 36 42 40 36 30 21 15 11 11 12 10 7 6 7 7 7 8 11 13 14 14 20 25 27 29 25 27 27
26 29 26 24 28 27 31 34 36 40 40 38 36 34 41 41 43 41 35 27 23 17 19 18 13 10 10 9 9 9 9 10 13 15 15 19 22 23 27 30 28 28 26
26 27 27 27 24 24 33 37 41 44 42 41 37 39 43 42 38 31 28 25 20 19 17 17 16 15 13 11 11 10 10 11 16 19 19 20 22 27 29 29 29 27 24
27 28 26 25 21 19 36 38 40 43 42 42 42 43 47 43 36 33 29 24 22 22 20 17 15 16 14 12 11 10 11 15 19 19 19 21 24 26 26 26 25 24 22
25 25 20 19 17 27 36 45 47 48 47 45 46 51 50 46 39 33 32 28 27 28 23 19 16 15 15 13 10 11 15 18 19 18 19 21 21 24 25 25 22 23 26
21 18 16 13 27 37 47 47 49 48 53 55 60 56 51 48 39 33 30 29 32 30 26 22 17 15 16 13 12 14 15 16 14 14 17 19 22 24 26 25 24 22 25
22 15 14 19 32 44 50 48 46 54 57 63 61 55 51 44 39 29 26 33 31 31 28 24 21 17 15 14 15 14 16 16 18 19 20 21 23 23 24 25 26 24 21
23 15 28 36 43 47 53 51 53 60 69 66 64 56 49 44 38 34 30 30 31 31 29 26 23 18 18 16 15 17 16 19 18 19 22 24 25 27 27 28 28 24 18
30 37 47 47 49 51 53 51 57 55 65 69 63 59 53 44 39 33 32 31 31 30 28 26 23 20 17 18 18 16 19 19 22 23 23 22 23 26 27 29 28 25 19
60 60 56 52 52 52 53 53 64 60 55 67 65 63 56 48 43 39 36 33 31 30 29 27 22 19 19 19 20 18 21 25 26 25 21 18 21 25 28 30 26 25 21
64 62 60 58 56 58 60 64 62 60 52 56 61 61 58 51 43 38 35 33 31 30 30 25 22 21 21 20 20 22 24 25 25 24 18 21 25 29 27 27 25 24 24
64 62 60 60 60 62 66 62 60 56 49 55 54 55 49 47 42 36 34 32 30 27 26 25 24 22 21 20 19 21 24 26 25 19 22 27 29 28 26 25 27 27 27
64 62 60 61 63 68 66 65 61 51 51 47 45 47 46 45 40 37 35 32 27 23 27 27 24 21 23 21 21 22 24 25 22 24 26 30 31 26 24 25 28 28 26
60 60 66 68 66 66 65 63 60 58 54 49 42 43 40 38 36 34 31 30 28 26 26 24 23 22 22 20 22 22 22 21 23 26 29 30 29 25 25 26 27 28 26
68 69 71 71 70 70 63 58 61 58 55 51 44 38 35 34 33 30 27 28 28 26 24 25 22 21 21 22 22 22 22 24 25 27 27 29 30 25 24 25 25 28 26
69 69 69 67 55 55 62 62 60 56 53 49 44 40 36 34 32 29 28 27 26 27 24 23 22 21 21 21 20 19 21 23 25 24 27 29 29 26 23 24 25 26 25
64 58 55 56 59 61 60 57 55 52 50 45 40 36 34 34 32 30 28 27 26 23 22 22 21 21 20 19 18 21 23 23 24 26 27 28 28 27 22 22 23 24 24
53 54 56 57 57 56 54 53 51 48 46 43 39 33 31 32 31 29 27 26 24 23 22 21 20 18 19 19 20 21 22 23 24 25 25 26 26 25 23 22 23 22 23
55 55 55 54 54 52 50 49 47 43 41 37 34 32 29 30 29 27 26 24 23 23 20 18 19 19 19 20 21 21 22 23 25 25 25 24 24 25 22 21 21 22 22
49 51 53 51 48 47 46 40 37 34 31 30 30 30 30 29 27 26 25 24 22 20 19 19 20 19 19 19 19 19 21 22 24 24 24 23 23 23 20 19 19 20 21
46 47 46 46 42 39 38 34 31 29 29 30 29 28 27 26 25 24 24 20 19 19 19 19 19 18 17 16 17 18 20 21 22 23 23 22 22 21 19 17 19 19 20
43 41 39 35 32 31 32 32 29 27 28 28 27 24 22 22 24 22 20 18 18 17 18 18 17 16 15 15 16 17 18 20 21 22 22 22 21 19 19 16 18 18 19